+ View the NASA Portal
+ Center for Near-Earth Object Studies
IMPORTANT:
The SSD Announcement email list is now available. Major changes are coming in the near future, including possible hostname and/or URL changes. To be notified of such changes, subscribe to this email list.
Please visit
this page
for more details.
Don't show this message again
JPL Small-Body Database Browser
Search:
[
help
]
379679 (2011 FF26)
Classification:
Main-belt Asteroid
SPK-ID:
2379679
[
Ephemeris
|
Orbit Diagram
|
Orbital Elements
|
Mission Design
|
Physical Parameters
|
Discovery Circumstances
|
Close-Approach Data
]
[ show orbit diagram ]
Orbital Elements at Epoch 2458600.5 (2019-Apr-27.0) TDB
Reference:
JPL 12
(heliocentric ecliptic J2000)
Element
Value
Uncertainty (1-sigma)
Units
e
.07776220005894531
7.4271e-08
a
3.068376523547867
5.4959e-08
au
q
2.829772814467566
2.3387e-07
au
i
10.07209692345989
8.0063e-06
deg
node
109.9480350693888
7.3372e-05
deg
peri
143.916261176458
0.00011397
deg
M
130.8308657059142
8.7756e-05
deg
t
p
2457887.040840103640
(2017-May-13.54084010)
0.00047382
TDB
period
1963.18579852582
5.37
5.2746e-05
1.444e-07
d
yr
n
.1833754096379102
4.9268e-09
deg/d
Q
3.306980232628167
5.9233e-08
au
Orbit Determination Parameters
# obs. used (total)
77
data-arc span
8965 days (24.54 yr)
first obs. used
1994-01-19
last obs. used
2018-08-06
planetary ephem.
DE431
SB-pert. ephem.
SB431-N16
condition code
0
norm. resid. RMS
.6993
source
ORB
producer
Otto Matic
solution date
2019-Jul-14 14:02:28
Additional Information
Earth MOID
= 1.82124 au
Jupiter MOID
= 1.79716 au
T_jup
= 3.203
[ show covariance matrix ]
[
Ephemeris
|
Orbit Diagram
|
Orbital Elements
|
Mission Design
|
Physical Parameters
|
Discovery Circumstances
|
Close-Approach Data
]
Physical Parameter Table
Parameter
Symbol
Value
Units
Sigma
Reference
Notes
absolute magnitude
H
16.5
n/a
MPO418932
379679 (2011 FF26)
Discovered 2006-Apr-20 by Spacewatch at Kitt Peak
Reference:
Last Updated:
2013-11-20
[ show close-approach data ]
Alternate Designations
2011 FF26
= 2006 JH20
[
Ephemeris
|
Orbit Diagram
|
Orbital Elements
|
Mission Design
|
Physical Parameters
|
Discovery Circumstances
|
Close-Approach Data
]
2019-Dec-16 10:49 UT
(server date/time)
Site Manager:
Ryan S. Park
Webmaster
:
Alan B. Chamberlin